Regional Weather Roundup
Issued by NWS Cleveland, OH

Home | Current Version | Previous Version | Graphics & Text | Print | Product List | Glossary On
Versions: 1 2 3 4 5 6 7 8 9 10 11 12 13 14 15 16 17 18 19 20 21 22 23 24 25 26 27 28 29 30 31 32 33 34 35 36 37 38 39 40 41 42 43 44 45 46 47 48 49 50
000
ASUS41 KCLE 300810
RWRCLE
OHIO REGIONAL WEATHER ROUNDUP
NATIONAL WEATHER SERVICE WILMINGTON, OH
400 AM EDT WED JUL 30 2014

NOTE: "FAIR" INDICATES FEW OR NO CLOUDS BELOW 12,000 FEET WITH NO
SIGNIFICANT WEATHER AND/OR OBSTRUCTIONS TO VISIBILITY.

OHZ001>008-015>018-024>027-034-035-043-044-300900-
   NORTHWEST OHIO

CITY           SKY/WX    TMP DP  RH WIND       PRES   REMARKS
DEFIANCE       CLOUDY    59  56  89 CALM      30.00S
FINDLAY        CLEAR     57  54  89 SW7       29.99S
TOLEDO EXPRESS MOCLDY    58  56  93 W7        29.98S
TOLEDO METCALF MOCLDY    58  55  90 SW5       29.99S
LIMA           CLEAR     59  56  89 S3        30.01S
$$

OHZ009>014-019>023-028>033-038-089-300900-
   NORTHEAST OHIO

CITY           SKY/WX    TMP DP  RH WIND       PRES   REMARKS
CLE-HOPKINS    PTCLDY    59  53  80 SW6       30.00R
CLE-LAKEFRONT  MOCLDY    63  55  75 SW12      29.97R
CUY CO. ARPT   NOT AVBL
LORAIN-ELYRIA  CLEAR     61  54  77 SW6       29.99R
ASHTABULA      PTCLDY    56  52  86 S5        29.98F
AKRON-CANTON   PTCLDY    58  50  75 SW8       30.01R
WOOSTER        MOCLDY    57  52  83 SW7       30.01S
MANSFIELD      CLEAR     58  55  90 SW6       30.01S
YOUNGSTOWN     MOCLDY    59  51  75 S7        30.00S
$$

OHZ042-051>053-060>062-070>072-077>081-300900-
  SOUTHWEST OHIO

CITY           SKY/WX    TMP DP  RH WIND       PRES   REMARKS
CINC-COVINGTON PTCLDY    60  57  89 CALM      30.05F
CINC-LUNKEN    PTCLDY    57  56  96 N3        30.05F
HAMILTON       CLEAR     57  56  96 CALM      30.05F
DAYTON         CLEAR     58  56  93 SW5       30.04F
WRIGHT-PAT AFB CLEAR     59  57  92 S3        30.04S
DAYTON GENERAL CLEAR     59  56  89 S3        30.04S
WILMINGTON     PTCLDY    56  53  90 S5        30.05S
$$

OHZ036-037-039>041-045>050-054>059-063>069-073>076-082>088-300900-
  CENTRAL AND SOUTHEAST OHIO

CITY           SKY/WX    TMP DP  RH WIND       PRES   REMARKS
COLUMBUS       PTCLDY    61  53  75 S3        30.03S
OSU AIRPORT    CLEAR     60  55  83 SW7       30.03S
BOLTON FIELD   PTCLDY    54  53  97 SW5       30.04S
RICKENBACK AFB CLOUDY    58  52  78 S5        30.03S
NEWARK         CLOUDY    59  54  83 S3        30.03S
MARION         CLEAR     58  55  90 S5        30.01F
LANCASTER      MOCLDY    61  52  72 S6        30.04S
ZANESVILLE     MOCLDY    57  52  83 SW3       30.03F
NEW PHILLY     CLEAR     54  53  97 SE6       30.03S
$$


USA.gov is the U.S. government's official web portal to all federal, state and local government web resources and services.